Home   Weather   Battambang   Past weeks

Flag for Cambodia Past Weather in Battambang, Cambodia — Yesterday and Last 2 Weeks

Now
79 °F

Scattered clouds.


Feels Like: 83 °F
Forecast: 76 / 89 °F
Wind: 1 mph from North

Location: Siemreap

Current Time: Jul 21, 2017 at 10:00:58 am

Latest Report: Jul 21, 2017 at 9:00 am


Visibility: 6 mi

Pressure: 29.77 "Hg

Humidity: 100%

Dew Point: 79 °F

Location of BattambangLocation

Past Weather in Battambang — Graph

°F

Battambang Temperature Yesterday

Maximum temperature yesterday: 90 °F (at 3:30 pm)
Minimum temperature yesterday: 75 °F (at 9:30 pm)
Average temperature yesterday: 82 °F

High & Low Weather Summary for the Past Weeks

 TemperatureHumidityPressure
High91 °F (Jul 6, 2:00 pm)100% (Jul 6, 8:00 am)29.83 "Hg (Jul 6, 8:00 am)
Low73 °F (Jul 10, 8:00 pm)52% (Jul 6, 2:00 pm)29.53 "Hg (Jul 16, 4:00 pm)
Average82 °F86%29.72 "Hg
* Reported Jul 6 8:00 am — Jul 21 8:30 am, Battambang. Weather by CustomWeather, © 2017

Note: Actual official high and low records may vary slightly from our data, if they occured in-between our weather recording intervals... More about our weather records

Advertising

Battambang Weather History for the Previous 24 Hours

Scroll right to see more
 ConditionsComfort  
Time TempWeatherWind HumidityBarometerVisibility
8:30 am
Fri, Jul 21
79 °FScattered clouds.No wind100%29.77 "Hg6 mi
8:00 am79 °FScattered clouds.1 mph100%29.74 "Hg6 mi
7:00 am77 °FScattered clouds.2 mph100%29.71 "Hg6 mi
2:30 am77 °FPassing clouds.3 mph100%29.71 "Hg5 mi
2:00 am77 °FPassing clouds.1 mph100%29.71 "Hg5 mi
1:30 am77 °FPassing clouds.2 mph100%29.71 "Hg5 mi
1:00 am77 °FPassing clouds.1 mph100%29.74 "Hg5 mi
12:30 am77 °FPassing clouds.1 mph100%29.74 "Hg5 mi
12:00 am77 °FPassing clouds.2 mph100%29.74 "Hg5 mi
11:30 pm
Thu, Jul 20
77 °FPassing clouds.1 mph100%29.74 "Hg5 mi
11:00 pm77 °FLight rain. Passing clouds.2 mph100%29.74 "Hg5 mi
10:30 pm77 °FPassing clouds.5 mph100%29.74 "Hg5 mi
10:00 pm75 °FSprinkles. Passing clouds.5 mph100%29.74 "Hg4 mi
9:30 pm75 °FRain showers. Passing clouds.16 mph100%29.74 "Hg2 mi
9:00 pm81 °FPassing clouds.7 mph94%29.71 "HgN/A
8:30 pm81 °FPassing clouds.8 mph94%29.71 "HgN/A
7:30 pm81 °FPassing clouds.8 mph94%29.68 "HgN/A
7:00 pm82 °FPassing clouds.9 mph74%29.65 "HgN/A
6:30 pm86 °FScattered clouds.7 mph70%29.62 "HgN/A
6:00 pm86 °FScattered clouds.7 mph70%29.62 "HgN/A
5:30 pm86 °FScattered clouds.10 mph70%29.62 "HgN/A
5:00 pm88 °FScattered clouds.9 mph66%29.62 "HgN/A
4:30 pm88 °FScattered clouds.10 mph62%29.59 "HgN/A
4:00 pm90 °FScattered clouds.12 mph59%29.59 "HgN/A
3:30 pm90 °FScattered clouds.9 mph59%29.59 "HgN/A
3:00 pm88 °FScattered clouds.7 mph66%29.62 "HgN/A
2:30 pm88 °FScattered clouds.8 mph70%29.62 "HgN/A
2:00 pm88 °FScattered clouds.8 mph66%29.65 "HgN/A
1:30 pm88 °FScattered clouds.9 mph66%29.65 "HgN/A
1:00 pm86 °FScattered clouds.14 mph70%29.68 "HgN/A
12:30 pm86 °FScattered clouds.13 mph70%29.68 "HgN/A
12:00 pm86 °FScattered clouds.10 mph70%29.71 "HgN/A
11:30 am86 °FScattered clouds.12 mph70%29.71 "HgN/A
11:00 am84 °FScattered clouds.8 mph74%29.74 "HgN/A
10:30 am82 °FScattered clouds.8 mph79%29.74 "HgN/A
Weather by CustomWeather, © 2017

See weather overviewHow to use our weather pages